Wind_Speed
11 8 3 7 4 2 4 5 5 7 14 10 15 14 13 21 11 10 29 23 25 21 19 18 17 16 14 13 12 11 11 11 11 11 10 9 11 11 12 12 13 13 15 16 15 16 16 17 16
7 7 5 6 6 3 1 5 6 5 14 20 13 16 16 15 14 31 28 25 22 20 18 17 17 15 15 12 12 10 12 12 11 12 11 11 12 11 11 13 13 13 14 14 15 16 16 16 15
10 8 7 2 3 3 3 3 7 17 22 17 17 16 12 13 29 25 28 26 23 21 18 17 16 15 14 12 11 11 11 11 12 12 12 12 13 12 12 12 13 13 14 14 16 17 15 15 16
8 7 8 6 5 1 2 7 12 19 18 14 16 15 12 21 20 26 28 24 22 20 17 17 15 14 13 11 9 11 10 10 11 12 12 12 12 12 12 12 13 13 14 13 15 14 15 15 16
8 7 5 2 4 4 6 9 20 12 12 18 16 17 25 16 22 26 26 22 20 21 15 15 13 12 10 9 9 9 9 10 10 11 11 12 11 12 12 13 13 14 15 16 17 17 15 15 15
4 6 1 4 8 7 8 11 11 10 14 17 25 23 12 17 27 25 23 20 20 15 18 12 12 10 9 8 9 9 10 10 10 10 10 11 11 12 13 13 14 16 16 17 18 17 15 14 15
7 6 3 11 13 9 12 7 5 16 17 12 14 17 19 25 26 24 22 18 16 20 13 11 10 11 10 9 9 9 10 10 10 10 11 12 13 12 13 14 16 17 17 18 18 17 16 16 16
11 3 4 7 11 7 12 6 2 9 9 9 14 12 25 30 26 24 21 19 18 15 13 16 9 9 11 10 10 10 10 10 11 14 14 15 17 17 16 16 18 17 18 18 17 18 19 17 17
6 3 3 2 13 10 12 7 2 3 10 7 4 25 31 31 27 24 20 20 16 15 14 13 11 12 10 8 10 11 12 12 14 19 19 11 16 10 14 16 17 16 18 18 17 17 17 18 22
4 2 8 5 7 15 15 10 9 6 7 10 13 28 31 29 26 24 22 20 18 15 13 12 14 11 12 11 11 11 7 17 13 12 11 14 12 14 14 18 18 17 17 16 18 16 12 10 7
4 2 7 13 14 18 18 10 8 14 10 15 23 32 32 29 25 23 21 18 18 15 15 12 12 14 13 8 14 8 12 12 14 12 11 12 13 16 13 16 15 14 13 9 10 10 14 5 8
4 11 14 12 16 13 15 16 10 13 5 18 21 30 31 29 25 23 21 18 18 15 14 11 15 11 12 11 13 11 9 10 10 10 12 12 12 12 9 11 11 12 10 8 10 7 9 8 9
8 5 7 17 9 10 14 11 11 9 6 17 22 30 29 27 23 21 19 18 17 16 14 13 13 11 12 10 11 11 12 11 9 10 6 11 10 12 12 9 10 9 9 7 7 7 8 9 8
7 13 10 12 9 18 12 15 11 9 8 19 26 30 28 25 23 21 20 18 17 16 15 14 14 12 12 13 12 11 11 11 10 9 10 9 10 11 9 9 9 5 9 7 5 12 9 5 8
9 8 9 9 19 14 16 15 9 15 16 22 29 29 27 24 22 21 20 19 18 16 16 15 14 14 12 15 14 10 10 12 10 8 10 9 8 5 7 6 9 6 7 8 4 5 5 6 6
13 14 12 10 14 14 12 11 18 22 23 24 28 29 25 23 22 19 18 18 18 17 17 16 14 15 14 12 14 10 7 14 13 9 7 6 8 6 9 5 5 7 4 8 3 6 7 6 7
14 14 12 12 13 12 12 14 13 18 22 25 26 27 25 23 21 20 19 18 18 17 17 17 15 14 14 12 10 10 9 7 7 8 7 7 4 6 6 5 3 8 3 6 5 6 5 5 4
18 18 13 16 12 12 17 11 20 19 21 24 26 28 26 24 23 21 19 19 18 17 17 17 17 16 15 13 11 8 7 7 5 9 6 5 6 4 6 5 5 4 7 5 5 5 4 5 1
12 17 22 17 15 21 13 14 17 18 13 13 25 24 26 27 24 22 21 19 18 17 18 17 17 18 17 13 11 9 7 6 6 7 6 6 3 5 9 6 5 3 3 8 6 6 5 3 1
16 18 9 14 13 12 19 17 20 22 20 18 11 17 23 27 26 24 22 20 18 19 18 18 17 17 16 13 11 9 8 6 7 6 6 5 4 3 4 8 6 5 8 5 2 2 4 5 4
18 13 14 12 7 13 12 10 22 17 22 27 28 25 27 25 29 29 23 21 18 19 19 19 19 17 17 13 12 9 9 5 8 7 5 5 5 4 4 9 3 7 6 6 5 3 1 3 4
20 18 12 10 14 13 16 3 15 17 15 15 31 33 25 29 27 29 25 25 20 20 19 19 19 18 18 16 12 12 10 9 8 8 7 5 5 4 4 5 5 8 6 8 5 3 2 0 4
16 16 11 12 14 11 19 5 6 12 16 11 15 27 29 31 30 31 27 26 22 20 20 18 18 18 18 18 16 13 12 10 9 10 9 11 6 6 6 6 6 10 8 9 6 4 7 2 3
17 17 13 12 13 13 14 13 7 7 16 19 14 11 9 20 29 31 30 29 25 23 21 20 20 18 18 17 20 15 11 11 4 9 7 7 8 4 7 8 9 8 6 2 6 6 6 7 5
16 13 11 12 14 11 17 10 5 9 12 9 11 9 17 19 17 29 33 31 27 27 24 22 21 21 19 18 16 17 13 12 8 6 9 9 4 9 9 4 8 8 11 8 8 7 8 10 7
19 20 13 14 14 15 13 11 10 12 15 12 8 3 10 27 24 27 30 30 30 28 26 23 22 21 22 21 19 17 15 12 13 12 11 9 7 9 10 6 7 9 9 7 9 7 4 8 7
19 20 24 15 16 15 13 15 15 10 14 10 9 7 4 18 30 27 32 32 30 30 27 25 23 22 21 21 20 19 18 16 14 14 12 11 9 8 7 7 8 8 8 9 10 7 8 9 7
12 17 20 9 17 17 15 18 13 11 9 9 10 12 13 3 15 11 19 31 30 30 28 25 24 22 21 20 20 19 19 18 18 15 16 13 12 11 13 10 10 9 10 9 9 9 10 10 8
11 13 18 14 15 13 12 8 13 14 9 8 9 12 15 19 21 14 12 11 21 31 29 26 26 24 20 19 20 20 19 19 18 17 16 16 15 14 12 9 12 12 10 11 12 12 7 6 9
10 13 17 12 19 13 6 7 12 13 16 13 11 12 14 17 17 18 12 9 6 7 20 26 25 23 21 19 19 20 20 19 18 18 17 16 16 15 17 15 17 15 14 13 14 12 11 11 10
Wind_Direction
167 157 139 217 243 106 314 355 164 128 102 120 106 97 72 32 46 93 137 137 136 136 137 135 134 130 125 118 114 110 102 98 100 106 102 103 104 95 94 97 102 97 97 98 92 92 96 93 91
153 186 206 263 256 131 190 187 156 103 115 116 115 106 90 61 106 125 131 138 136 136 134 136 132 126 118 114 113 105 96 92 92 99 96 90 96 105 102 99 103 98 99 95 96 97 89 95 95
170 203 277 234 248 156 68 116 131 114 129 131 114 74 53 100 121 127 135 137 136 136 135 144 132 124 119 117 110 108 101 97 93 92 91 93 92 102 96 102 106 101 104 103 102 100 90 89 97
177 231 250 248 127 17 68 130 143 139 118 129 112 90 88 127 122 135 136 138 137 135 141 138 133 126 119 112 107 105 99 94 91 91 93 89 90 92 100 106 112 107 104 104 98 103 95 85 95
225 244 247 74 63 156 175 162 140 118 134 137 90 100 116 118 129 135 137 140 135 133 133 134 135 129 121 112 103 104 96 97 96 99 92 88 92 96 104 107 110 110 109 102 95 90 83 82 97
256 257 314 125 103 150 131 133 116 111 120 99 101 114 113 137 139 141 140 138 139 132 136 135 137 128 125 119 109 108 105 102 101 101 98 96 96 101 105 106 110 110 104 102 99 93 82 86 95
231 276 311 107 117 140 135 110 135 140 137 114 126 115 138 146 144 143 141 137 132 135 130 132 130 131 125 119 116 109 105 104 100 105 101 98 93 95 110 113 110 108 105 104 101 90 83 87 93
241 246 296 137 144 120 135 102 84 138 68 104 122 139 148 148 147 144 142 142 133 130 132 140 126 135 119 118 117 109 106 106 104 97 88 87 77 86 89 112 114 109 106 107 99 89 79 77 86
274 286 47 22 128 148 143 130 91 71 133 200 136 145 147 148 149 148 145 133 139 135 137 142 128 149 135 106 106 101 97 94 103 94 87 93 75 88 96 128 112 109 109 106 94 81 73 78 71
245 323 21 71 143 145 158 139 131 145 142 120 134 138 147 150 154 153 156 147 150 145 143 133 132 124 121 108 105 112 111 120 121 112 81 97 116 112 114 112 107 102 104 97 87 66 50 75 75
136 302 66 82 119 139 148 147 145 147 191 148 141 149 153 154 158 157 157 156 150 147 140 157 151 114 135 143 118 105 108 120 113 101 113 107 106 100 106 97 92 94 104 91 73 63 70 61 77
217 215 100 109 114 152 147 149 148 189 92 153 157 158 157 158 162 159 157 157 151 150 144 146 133 138 112 133 115 127 117 114 112 124 115 107 114 122 118 116 124 105 79 105 119 84 91 91 69
248 231 103 120 110 145 155 164 152 151 143 151 157 162 162 161 160 162 157 157 156 154 151 144 144 140 143 132 128 129 129 126 121 114 123 127 123 115 119 116 111 115 112 104 100 92 80 119 89
229 241 144 158 151 151 160 158 142 132 149 150 160 164 166 164 163 164 163 162 162 158 155 154 149 147 147 128 127 132 124 124 126 127 137 110 124 117 114 118 114 89 104 120 103 52 80 114 100
224 218 194 181 162 146 168 158 131 141 142 154 164 166 167 167 166 168 165 165 166 162 159 158 155 150 144 142 137 127 142 125 128 137 125 132 121 120 117 90 79 100 110 95 77 97 73 108 119
233 232 187 157 165 145 148 157 144 147 147 161 165 166 169 170 169 170 170 168 167 165 164 161 160 157 151 153 136 151 146 136 134 136 137 133 151 136 95 87 128 113 103 134 78 102 95 97 85
210 207 181 146 164 165 187 136 131 159 157 164 168 165 172 172 172 173 173 172 170 169 168 163 162 163 158 163 150 151 164 148 142 141 162 156 151 149 123 118 149 112 93 68 101 83 118 124 117
197 232 188 151 174 173 121 152 158 167 165 174 176 174 174 175 175 173 173 172 172 171 171 168 166 168 166 164 159 156 161 147 133 142 167 151 161 162 126 159 152 153 101 126 97 102 62 49 82
241 209 209 141 168 165 156 160 145 165 186 214 181 179 178 178 177 174 173 174 175 174 173 176 170 176 167 174 165 162 160 159 164 168 202 144 165 206 148 162 146 74 116 95 109 94 53 103 94
245 219 189 135 185 128 246 162 143 165 181 189 194 196 188 179 176 179 174 179 181 180 178 178 178 181 171 175 176 175 173 171 167 193 169 156 170 165 171 169 206 195 154 145 158 61 112 88 29
231 221 134 167 191 244 154 141 141 166 182 185 188 208 200 197 179 178 180 185 179 180 181 182 181 188 175 181 176 187 191 157 188 189 190 193 181 210 184 199 189 214 181 170 142 121 280 82 69
207 234 168 157 190 197 211 95 175 163 175 185 198 208 194 196 195 183 184 192 181 183 179 184 184 188 187 182 186 199 173 186 190 201 191 193 173 188 184 169 183 166 235 143 180 203 118 220 137
235 203 164 194 217 179 193 122 285 203 160 156 263 201 204 181 194 189 187 197 184 182 182 183 185 191 192 190 182 201 209 212 166 196 193 210 180 193 190 186 194 196 170 194 138 172 203 152 355
233 169 194 225 238 235 233 196 150 240 149 146 190 247 209 186 188 189 191 191 189 183 186 185 187 194 191 199 192 198 214 221 243 200 183 202 185 190 197 200 201 205 202 177 196 204 209 225 211
224 189 192 206 217 228 208 190 64 92 72 90 143 222 216 220 194 191 193 189 192 185 188 190 194 198 201 204 206 213 214 225 225 194 218 219 225 208 225 251 213 217 201 203 189 227 199 235 208
217 207 206 194 205 206 204 142 118 96 85 43 19 261 283 199 203 194 191 190 190 190 189 194 199 202 208 211 215 216 214 217 218 221 216 231 229 204 214 254 219 201 217 212 213 217 215 243 231
194 227 229 228 211 211 136 95 107 109 85 54 32 14 313 193 191 194 192 196 186 198 193 196 203 207 210 213 218 222 222 208 214 219 227 224 236 222 198 204 215 215 215 216 235 213 232 238 249
270 214 233 236 252 211 142 161 141 138 83 57 35 22 4 321 72 185 201 186 196 196 198 201 205 209 209 212 218 220 218 223 215 213 218 215 225 244 260 188 223 210 221 228 218 226 244 233 216
209 238 235 243 254 206 150 115 105 123 102 76 48 32 26 35 43 62 30 174 195 195 198 200 205 207 210 212 215 217 221 219 220 220 221 224 223 218 235 221 224 224 228 232 239 219 233 232 228
295 224 222 241 228 271 304 96 105 118 109 93 66 53 47 48 55 69 67 154 152 174 194 198 206 208 213 215 219 219 217 216 221 223 222 225 228 226 223 225 232 228 229 229 243 238 231 233 238
Height
1514 1516 1520 1520 1519 1505 1516 1518 1502 1498 1499 1497 1498 1501 1508 1512 1520 1532 1541 1546 1550 1554 1555 1557 1560 1562 1563 1565 1567 1567 1567 1569 1570 1570 1570 1571 1571 1572 1572 1573 1574 1575 1575 1576 1576 1576 1577 1577 1577
1519 1521 1521 1517 1507 1527 1517 1512 1504 1500 1500 1502 1507 1510 1514 1523 1525 1533 1541 1549 1553 1556 1560 1560 1561 1563 1565 1567 1568 1569 1570 1571 1571 1572 1573 1573 1573 1573 1574 1575 1576 1577 1577 1578 1579 1580 1581 1580 1580
1518 1520 1520 1513 1511 1520 1513 1510 1505 1502 1504 1506 1508 1511 1521 1530 1533 1536 1544 1550 1554 1558 1561 1561 1563 1565 1567 1568 1570 1571 1572 1572 1573 1575 1574 1574 1574 1575 1576 1577 1578 1579 1580 1581 1581 1582 1583 1583 1582
1519 1520 1517 1509 1515 1518 1511 1506 1504 1504 1505 1508 1513 1524 1533 1535 1537 1542 1547 1552 1556 1560 1562 1562 1565 1568 1569 1571 1572 1573 1574 1574 1575 1575 1576 1576 1576 1577 1578 1579 1580 1581 1582 1583 1584 1584 1585 1585 1586
1518 1516 1511 1514 1514 1515 1511 1508 1506 1506 1507 1512 1514 1526 1533 1538 1541 1547 1550 1554 1558 1561 1564 1566 1568 1569 1571 1572 1573 1575 1575 1576 1577 1577 1578 1578 1579 1580 1580 1582 1583 1583 1585 1585 1585 1586 1588 1588 1589
1518 1511 1510 1505 1513 1511 1508 1509 1511 1512 1511 1516 1523 1531 1539 1543 1545 1550 1553 1557 1560 1563 1567 1568 1569 1571 1573 1575 1576 1576 1577 1578 1578 1579 1580 1580 1581 1582 1583 1584 1585 1586 1587 1588 1589 1590 1591 1591 1591
1517 1509 1504 1500 1512 1514 1513 1516 1516 1513 1516 1520 1521 1528 1539 1544 1548 1551 1555 1559 1562 1564 1569 1572 1573 1573 1574 1576 1577 1578 1579 1580 1580 1581 1582 1583 1584 1584 1585 1586 1588 1589 1589 1590 1592 1593 1593 1593 1593
1508 1506 1501 1493 1503 1515 1514 1520 1519 1514 1521 1523 1523 1530 1537 1543 1549 1553 1556 1561 1564 1567 1570 1573 1575 1577 1578 1579 1579 1580 1581 1582 1583 1584 1585 1586 1587 1588 1588 1590 1590 1592 1593 1594 1595 1596 1596 1595 1596
1507 1508 1504 1498 1498 1514 1516 1519 1524 1524 1524 1524 1525 1528 1538 1545 1550 1554 1558 1561 1567 1569 1572 1573 1576 1577 1579 1581 1581 1582 1583 1584 1586 1587 1588 1589 1591 1593 1592 1593 1594 1595 1595 1597 1598 1598 1598 1598 1599
1502 1508 1499 1496 1494 1508 1517 1520 1523 1525 1526 1526 1526 1533 1541 1547 1551 1555 1559 1563 1567 1570 1573 1575 1577 1581 1581 1585 1585 1587 1586 1585 1590 1591 1591 1592 1594 1596 1596 1596 1598 1599 1600 1601 1601 1600 1599 1599 1600
1503 1507 1498 1499 1499 1509 1516 1521 1523 1526 1526 1527 1528 1535 1542 1548 1552 1556 1559 1563 1567 1571 1574 1575 1579 1581 1584 1586 1586 1588 1590 1592 1592 1592 1596 1595 1597 1598 1600 1600 1601 1601 1602 1604 1603 1603 1603 1605 1605
1498 1501 1499 1503 1506 1510 1516 1519 1522 1522 1523 1527 1532 1538 1543 1548 1552 1556 1559 1564 1568 1572 1576 1576 1581 1584 1584 1588 1588 1591 1592 1594 1595 1596 1597 1598 1600 1602 1601 1602 1605 1602 1604 1606 1603 1606 1607 1607 1607
1499 1495 1498 1500 1508 1508 1512 1516 1518 1525 1526 1529 1533 1540 1545 1549 1553 1558 1561 1565 1570 1574 1577 1579 1583 1585 1587 1587 1591 1592 1594 1595 1596 1598 1598 1601 1601 1602 1604 1604 1601 1606 1607 1608 1607 1606 1607 1606 1609
1497 1494 1495 1496 1505 1508 1510 1516 1519 1525 1527 1530 1535 1540 1545 1549 1554 1558 1562 1566 1571 1575 1578 1581 1584 1586 1588 1589 1592 1592 1595 1597 1599 1600 1601 1602 1603 1604 1605 1605 1606 1606 1608 1608 1608 1605 1608 1608 1609
1494 1494 1490 1492 1497 1501 1510 1515 1521 1525 1529 1533 1535 1540 1545 1549 1554 1559 1562 1567 1572 1575 1579 1582 1585 1587 1588 1591 1593 1595 1596 1598 1600 1601 1602 1602 1604 1605 1606 1607 1601 1607 1608 1608 1609 1610 1610 1610 1611
1493 1487 1491 1487 1491 1497 1508 1518 1516 1523 1530 1534 1535 1539 1545 1549 1554 1560 1564 1567 1571 1575 1579 1582 1585 1588 1590 1592 1593 1596 1597 1596 1600 1602 1603 1604 1604 1606 1607 1607 1609 1610 1609 1609 1610 1610 1611 1612 1611
1487 1484 1482 1489 1490 1494 1501 1517 1518 1523 1526 1532 1534 1538 1544 1549 1554 1560 1564 1568 1571 1575 1579 1582 1585 1589 1591 1593 1595 1597 1598 1599 1601 1602 1603 1605 1605 1605 1606 1609 1609 1609 1611 1611 1609 1612 1612 1612 1612
1482 1476 1472 1480 1486 1492 1505 1509 1515 1525 1529 1531 1535 1537 1542 1548 1553 1559 1563 1567 1571 1574 1578 1582 1585 1587 1591 1594 1596 1597 1600 1601 1602 1603 1602 1604 1604 1606 1607 1609 1609 1607 1611 1611 1612 1613 1612 1612 1612
1462 1466 1505 1474 1475 1489 1490 1502 1511 1526 1530 1531 1533 1537 1541 1546 1551 1557 1561 1566 1570 1574 1577 1581 1584 1586 1589 1594 1596 1598 1600 1602 1602 1603 1603 1604 1606 1606 1606 1609 1609 1609 1612 1612 1613 1613 1614 1614 1613
1470 1463 1468 1469 1471 1485 1510 1502 1506 1523 1529 1532 1535 1537 1539 1543 1549 1555 1559 1563 1568 1572 1576 1580 1583 1585 1589 1593 1595 1598 1599 1601 1602 1602 1603 1606 1606 1606 1607 1608 1610 1610 1610 1612 1613 1613 1613 1615 1614
1471 1461 1468 1480 1481 1479 1482 1495 1504 1516 1523 1529 1534 1537 1538 1541 1546 1552 1558 1562 1566 1571 1575 1578 1581 1583 1588 1592 1595 1597 1598 1600 1602 1602 1604 1605 1606 1607 1607 1607 1609 1610 1611 1612 1614 1614 1614 1614 1616
1476 1461 1464 1472 1484 1490 1475 1519 1496 1508 1511 1524 1526 1529 1531 1538 1543 1549 1555 1559 1563 1569 1573 1576 1579 1582 1585 1590 1594 1596 1598 1599 1600 1602 1603 1603 1606 1607 1607 1607 1609 1609 1611 1609 1614 1615 1614 1615 1615
1470 1464 1475 1476 1480 1472 1479 1500 1517 1499 1507 1525 1524 1525 1523 1530 1540 1546 1551 1556 1560 1567 1572 1575 1578 1582 1585 1587 1590 1595 1595 1597 1599 1599 1601 1603 1603 1605 1606 1608 1609 1609 1610 1612 1613 1614 1615 1616 1616
1466 1465 1479 1478 1478 1490 1472 1480 1526 1499 1497 1513 1524 1521 1517 1527 1534 1543 1546 1553 1557 1563 1570 1574 1576 1579 1583 1585 1589 1592 1595 1595 1597 1600 1601 1602 1602 1604 1605 1606 1608 1608 1609 1610 1612 1614 1615 1615 1615
1470 1478 1498 1504 1496 1489 1461 1476 1509 1497 1500 1509 1520 1522 1524 1527 1532 1536 1544 1549 1553 1559 1566 1571 1574 1576 1580 1584 1587 1590 1594 1595 1597 1599 1601 1601 1601 1603 1603 1605 1606 1608 1609 1609 1612 1612 1614 1614 1616
1474 1475 1480 1505 1492 1478 1450 1486 1503 1503 1512 1521 1522 1523 1520 1521 1527 1534 1537 1543 1549 1555 1562 1568 1572 1574 1577 1581 1584 1587 1591 1594 1596 1598 1600 1601 1600 1603 1603 1604 1606 1607 1609 1610 1610 1611 1613 1614 1614
1473 1476 1453 1457 1453 1463 1470 1501 1506 1510 1518 1529 1529 1524 1520 1514 1521 1526 1533 1539 1546 1551 1557 1564 1569 1572 1574 1577 1581 1584 1587 1590 1594 1596 1598 1600 1601 1599 1602 1604 1606 1607 1608 1609 1610 1610 1612 1612 1612
1471 1465 1471 1463 1479 1480 1470 1495 1493 1513 1525 1532 1534 1531 1526 1518 1519 1523 1526 1534 1542 1548 1553 1560 1565 1569 1571 1575 1578 1581 1584 1586 1590 1593 1595 1597 1599 1600 1596 1601 1604 1606 1607 1608 1608 1610 1610 1610 1612
1474 1473 1460 1453 1447 1460 1491 1499 1496 1516 1529 1535 1536 1534 1531 1525 1523 1518 1513 1528 1536 1542 1548 1554 1561 1565 1568 1572 1575 1578 1580 1583 1586 1588 1591 1593 1595 1597 1598 1600 1603 1603 1605 1607 1607 1607 1607 1609 1609
1465 1464 1464 1470 1469 1450 1455 1513 1511 1520 1527 1535 1538 1537 1534 1530 1530 1526 1526 1528 1534 1536 1542 1550 1556 1561 1564 1568 1571 1574 1577 1581 1583 1584 1587 1589 1591 1593 1595 1597 1598 1601 1602 1604 1605 1606 1607 1608 1609